[[{"header":{"parameterUnit":"m.s-1","parameterCategory":1,"la1":30.2991,"la2":30.254,"lo1":-89.0895,"lo2":-89.0444,"dy":0.0017,"dx":0.0017,"nx":28,"ny":28,"refTime":"2024-05-25T21:00:00:Z","depth":0,"parameterNumber":2,"parameterNumberName":"U-component_of_WINDS"},"data":[0,0,0,0,0,0,0,0,0,0,0,0,0,0,0,0,0,0,0,0,0,0,0,0,0,0,0,0,0,0,0,0,0,0,0,0,0,0,0,0,0,0,0,0,0,0,0,0,0,0,0,0,0,0,0,0,0,0,0.5641,0.5642,0,0.5716,0.5717,0.5718,0.5738,0.5737,0.5737,0.5736,0.5814,0.5817,0.5819,0,0,0,0,0,0,0,0,0,0,0,0,0,0.5515,0.5517,0.5641,0.5642,0.5643,0.5716,0.5717,0.5718,0.5738,0.5737,0.5737,0.5736,0.5814,0.5817,0.582,0,0,0,0,0,0,0,0,0,0,0,0,0,0.5578,0.5518,0.5641,0.5662,0.5664,0.5716,0.5717,0.5718,0.5738,0.5737,0.5737,0.5736,0.5813,0.5816,0.582,0.5857,0,0,0.5831,0.5833,0,0,0,0,0,0,0,0,0.5574,0.5582,0.5658,0.566,0.5663,0.5717,0.5701,0.5765,0.5738,0.571,0.5736,0.5736,0.5783,0.5789,0.5804,0.586,0.5864,0.5832,0.5834,0.5836,0.5837,0,0,0,0,0,0,0,0.557,0.5579,0.5671,0.5659,0.5662,0.5667,0.5675,0.5713,0.5749,0.5712,0.5714,0.5723,0.5784,0.5801,0.5806,0.5865,0.5832,0.5835,0.5837,0.5839,0.5953,0.5954,0,0,0,0,0,0,0.5562,0.5576,0.5669,0.5673,0.5616,0.567,0.5679,0.57,0.5749,0.5756,0.5723,0.5723,0.5795,0.5802,0.5809,0.5854,0.5836,0.5839,0.5841,0.5952,0.5953,0.5954,0,0,0,0,0,0,0.5559,0.557,0.5665,0.5625,0.5637,0.5673,0.5697,0.5702,0.5719,0.5757,0.5764,0.5734,0.5794,0.5804,0.5844,0.5857,0.5841,0.5844,0.5951,0.5952,0.5953,0.5945,0,0,0,0,0,0,0.5555,0.5569,0.5583,0.5625,0.5639,0.5699,0.5697,0.5704,0.5725,0.5726,0.5768,0.5775,0.5795,0.5839,0.5848,0.5862,0.5847,0.595,0.5952,0.5953,0.5944,0.5946,0.5947,0,0,0,0,0,0.5551,0.5579,0.5584,0.5595,0.5658,0.57,0.5708,0.573,0.5726,0.5741,0.5765,0.5774,0.5854,0.5842,0.5853,0.5869,0.5949,0.5951,0.5953,0.5943,0.5945,0.5947,0,0,0,0,0,0,0.5539,0.5585,0.5591,0.5633,0.5662,0.5703,0.5723,0.5732,0.5763,0.5763,0.5789,0.5798,0.5836,0.5857,0.5843,0.5906,0.5902,0.5906,0.5891,0.5893,0.5894,0.5888,0.585,0,0,0,0,0,0.554,0.557,0.5609,0.5643,0.5657,0.5687,0.5706,0.572,0.5752,0.5764,0.5792,0.5822,0.5854,0.5875,0.5907,0.5947,0.5956,0.5963,0.5964,0.5965,0.5968,0.599,0.5993,0.596,0.596,0.596,0,0,0.5545,0.5574,0.5592,0.5641,0.5665,0.5695,0.5697,0.573,0.5752,0.577,0.5809,0.583,0.5865,0.5905,0.5924,0.5923,0.5979,0.5967,0.5968,0.597,0.5992,0.5995,0.5997,0.5961,0.5961,0.596,0,0,0.5569,0.5594,0.5624,0.5648,0.5685,0.5704,0.5711,0.575,0.5765,0.5804,0.5817,0.5845,0.59,0.5924,0.5944,0.5975,0.5983,0.5984,0.5991,0.6012,0.6014,0.6017,0.6027,0.603,0.5987,0.5987,0.5987,0,0.5571,0.5616,0.5639,0.5669,0.569,0.5706,0.5736,0.5759,0.5804,0.5817,0.5816,0.5884,0.5909,0.5954,0.5962,0.5977,0.5986,0.5979,0.6012,0.6015,0.6017,0.6027,0.6031,0.5987,0.5987,0.5987,0.5987,0,0.5616,0.5647,0.5667,0.5709,0.5732,0.5762,0.5788,0.5809,0.5821,0.584,0.5879,0.591,0.5948,0.5959,0.5972,0.6006,0.6004,0.6007,0.6003,0.602,0.6029,0.6033,0.5987,0.5987,0.5987,0.5987,0,0,0.5635,0.5687,0.5694,0.5712,0.5753,0.5778,0.5808,0.5844,0.586,0.5891,0.5917,0.5962,0.5964,0.5986,0.6001,0.6019,0.604,0.602,0.6021,0.6022,0.6078,0.6075,0.6079,0.6046,0.6047,0.6048,0.6075,0,0.5663,0.5718,0.5737,0.5782,0.5811,0.5826,0.5852,0.588,0.5899,0.5925,0.5947,0.5978,0.5979,0.5992,0.6011,0.6034,0.6052,0.6032,0.607,0.6071,0.606,0.6085,0.6082,0.6107,0.6079,0.608,0.608,0,0.5703,0.5732,0.578,0.5815,0.5828,0.5851,0.5885,0.5911,0.5942,0.5954,0.5978,0.5991,0.6023,0.6018,0.6062,0.6048,0.6064,0.6078,0.6079,0.6083,0.6076,0.6089,0.6115,0.6118,0.6087,0.6086,0.6086,0,0.5711,0.5762,0.5797,0.5812,0.5855,0.587,0.5889,0.5919,0.5939,0.5969,0.5981,0.6014,0.6032,0.6057,0.6079,0.6073,0.6121,0.6117,0.6131,0.6131,0.614,0.6139,0.6169,0.6152,0.6152,0.6152,0.6152,0,0.5739,0.5768,0.58,0.5821,0.5853,0.5875,0.5906,0.5926,0.5952,0.5977,0.5993,0.6016,0.6043,0.607,0.6087,0.612,0.6128,0.6139,0.6143,0.6137,0.6135,0.6148,0.6147,0.6153,0.6153,0.6153,0.6152,0,0.5753,0.5776,0.5815,0.5851,0.5861,0.5882,0.5914,0.5935,0.5953,0.5985,0.5993,0.6023,0.6055,0.6079,0.6121,0.6132,0.6167,0.6172,0.6156,0.6158,0.6171,0.6169,0.6209,0.6215,0.6194,0.6194,0.6195,0,0.577,0.5791,0.583,0.5847,0.5865,0.5893,0.5913,0.5936,0.5955,0.5992,0.6008,0.6041,0.6068,0.6118,0.6143,0.6175,0.618,0.6192,0.6185,0.6178,0.6179,0.6177,0.6179,0.6193,0.6193,0.6193,0.6193,0,0.5796,0.5806,0.5834,0.5865,0.5888,0.5914,0.594,0.5953,0.598,0.6002,0.6034,0.6055,0.6097,0.6129,0.6163,0.6182,0.6192,0.6195,0.62,0.6194,0.6183,0.6188,0.6158,0.6194,0.6194,0.6194,0.6194,0.6194,0.5811,0.583,0.586,0.589,0.5911,0.5935,0.5956,0.5977,0.6004,0.6039,0.6051,0.6084,0.6113,0.616,0.6179,0.6205,0.6205,0.6212,0.6214,0.6215,0.6214,0.6179,0.6211,0.6211,0.6211,0.6211,0.6211,0,0.5837,0.5857,0.5884,0.5919,0.5942,0.5949,0.5978,0.5997,0.6025,0.6052,0.6078,0.6114,0.6145,0.6172,0.6204,0.6219,0.6225,0.6227,0.6226,0.623,0.6213,0.6205,0.6222,0.6222,0.6222,0.6222,0.6222,0.6222,0.5854,0.5886,0.5899,0.5943,0.5962,0.5994,0.6009,0.6031,0.6052,0.6092,0.6117,0.6134,0.6161,0.6194,0.6222,0.623,0.624,0.6241,0.6249,0.6233,0.6231,0.623,0.6223,0.6244,0.6244,0.6265,0.6265,0.6265]},{"header":{"parameterUnit":"m.s-1","parameterCategory":1,"la1":30.2991,"la2":30.254,"lo1":-89.0895,"lo2":-89.0444,"dy":0.0017,"dx":0.0017,"nx":28,"ny":28,"refTime":"2024-05-25T21:00:00:Z","depth":0,"parameterNumber":3,"parameterNumberName":"V-component_of_WINDS"},"data":[0,0,0,0,0,0,0,0,0,0,0,0,0,0,0,0,0,0,0,0,0,0,0,0,0,0,0,0,0,0,0,0,0,0,0,0,0,0,0,0,0,0,0,0,0,0,0,0,0,0,0,0,0,0,0,0,0,0,5.6339,5.6339,0,5.64,5.6401,5.6402,5.6345,5.6342,5.634,5.6338,5.6396,5.64,5.6404,0,0,0,0,0,0,0,0,0,0,0,0,0,5.6165,5.6169,5.6338,5.6339,5.634,5.64,5.6401,5.6402,5.6345,5.6342,5.634,5.6337,5.6395,5.64,5.6404,0,0,0,0,0,0,0,0,0,0,0,0,0,5.6235,5.617,5.6338,5.6319,5.6318,5.64,5.6401,5.6402,5.6346,5.6342,5.6339,5.6336,5.6394,5.6399,5.6405,5.6507,0,0,5.6422,5.6424,0,0,0,0,0,0,0,0,5.6231,5.6241,5.6321,5.6321,5.6319,5.6361,5.6361,5.6437,5.6347,5.6335,5.6338,5.6334,5.6387,5.6393,5.6412,5.651,5.6512,5.6422,5.6425,5.6428,5.6429,0,0,0,0,0,0,0,5.6226,5.6238,5.6363,5.6322,5.6321,5.6305,5.6311,5.6375,5.6379,5.6336,5.6332,5.634,5.6386,5.6407,5.6413,5.6513,5.6422,5.6427,5.643,5.6432,5.6696,5.6699,0,0,0,0,0,0,5.6224,5.6235,5.6361,5.6365,5.6266,5.6311,5.6318,5.6351,5.6379,5.638,5.6343,5.6337,5.6399,5.6407,5.6415,5.6535,5.6428,5.6433,5.6436,5.6692,5.6697,5.6701,0,0,0,0,0,0,5.6221,5.6236,5.6358,5.6299,5.6313,5.6318,5.6356,5.6354,5.6375,5.6384,5.6384,5.6364,5.6397,5.6407,5.6484,5.6537,5.6435,5.644,5.6688,5.6694,5.6699,5.6778,0,0,0,0,0,0,5.6216,5.6235,5.6276,5.63,5.6316,5.6429,5.6359,5.6358,5.6385,5.6378,5.6404,5.6405,5.6395,5.6477,5.649,5.6542,5.6445,5.6683,5.669,5.6697,5.6771,5.6786,5.6798,0,0,0,0,0,5.621,5.6295,5.6278,5.6294,5.6368,5.6432,5.6441,5.643,5.639,5.643,5.6435,5.6404,5.6529,5.6485,5.65,5.6554,5.668,5.6688,5.6696,5.6765,5.6783,5.6798,0,0,0,0,0,0,5.6276,5.6298,5.628,5.6376,5.6403,5.6423,5.6473,5.645,5.6487,5.6479,5.6461,5.6468,5.6549,5.6559,5.651,5.6654,5.6597,5.6609,5.6644,5.6662,5.6675,5.6671,5.6449,0,0,0,0,0,5.6302,5.6354,5.637,5.6453,5.6468,5.6468,5.6496,5.6484,5.6511,5.6522,5.6533,5.6558,5.6603,5.6633,5.6675,5.6772,5.6775,5.6816,5.683,5.6841,5.6852,5.6902,5.692,5.6728,5.6728,5.6728,0,0,5.6355,5.6374,5.6408,5.6467,5.6486,5.6539,5.6478,5.6537,5.6575,5.653,5.6604,5.6613,5.664,5.6727,5.6766,5.6738,5.6905,5.6852,5.6861,5.6865,5.6912,5.693,5.6946,5.6733,5.6732,5.6732,0,0,5.648,5.65,5.6571,5.6592,5.6622,5.6622,5.6639,5.6662,5.6667,5.6741,5.6708,5.6752,5.683,5.685,5.687,5.7001,5.6972,5.7014,5.7086,5.7135,5.715,5.7163,5.7208,5.7225,5.7025,5.7025,5.7025,0,5.6542,5.6622,5.6609,5.6671,5.6696,5.6659,5.6729,5.6749,5.6791,5.6809,5.6777,5.6873,5.6889,5.698,5.7011,5.703,5.7047,5.7012,5.7149,5.7163,5.7175,5.7217,5.7235,5.703,5.7029,5.7029,5.7028,0,5.6696,5.6752,5.6805,5.6848,5.6879,5.6944,5.6939,5.6972,5.6958,5.696,5.7034,5.7052,5.7096,5.7116,5.7102,5.7204,5.7186,5.7152,5.7095,5.7198,5.7238,5.7254,5.7036,5.7035,5.7033,5.7032,0,0,5.6865,5.6899,5.6919,5.6937,5.6967,5.7009,5.7071,5.7115,5.7143,5.7173,5.7223,5.7289,5.7258,5.7281,5.7269,5.7312,5.7412,5.7273,5.7273,5.7297,5.7523,5.7548,5.7567,5.7394,5.7397,5.7399,5.7521,0,5.699,5.71,5.7089,5.7193,5.7242,5.7207,5.726,5.7284,5.7287,5.7328,5.733,5.7377,5.7333,5.7346,5.7387,5.7391,5.7457,5.7382,5.7438,5.7441,5.7432,5.7588,5.7615,5.7729,5.7536,5.7539,5.7541,0,5.715,5.7187,5.7295,5.7317,5.7337,5.7386,5.7424,5.7465,5.7489,5.7488,5.7514,5.7493,5.7553,5.7495,5.7576,5.7526,5.7548,5.7553,5.7557,5.7561,5.7497,5.7596,5.7765,5.7782,5.7565,5.7563,5.7562,0,5.7261,5.7337,5.7411,5.7428,5.7455,5.7489,5.7502,5.7523,5.755,5.7583,5.7599,5.7638,5.766,5.7689,5.7679,5.7638,5.7762,5.7704,5.7761,5.7761,5.7788,5.7787,5.7963,5.7804,5.7804,5.7804,5.7803,0,5.74,5.7468,5.7461,5.7507,5.758,5.7566,5.7639,5.7647,5.7666,5.7711,5.7682,5.7724,5.7709,5.7749,5.7742,5.7809,5.7819,5.7818,5.7815,5.7821,5.7821,5.7834,5.7826,5.7808,5.7807,5.7806,5.7805,0,5.7536,5.7535,5.7613,5.7632,5.7638,5.7692,5.7707,5.7748,5.7749,5.7806,5.7818,5.7818,5.7865,5.7858,5.7909,5.7903,5.7987,5.7975,5.7979,5.7976,5.8034,5.8028,5.8224,5.8248,5.8075,5.8077,5.8078,0,5.7626,5.7677,5.7701,5.773,5.7745,5.7792,5.7819,5.7806,5.7835,5.7865,5.7903,5.7947,5.7982,5.8057,5.806,5.8099,5.8086,5.8152,5.8092,5.8095,5.8086,5.8083,5.8087,5.8164,5.8166,5.8168,5.8169,0,5.7784,5.778,5.7821,5.7861,5.7894,5.7925,5.7953,5.7977,5.7967,5.8,5.8048,5.8075,5.8127,5.817,5.8206,5.8216,5.8191,5.8188,5.8203,5.8209,5.8209,5.8209,5.8011,5.8184,5.8182,5.8181,5.818,5.818,5.7898,5.7941,5.7965,5.8011,5.803,5.8056,5.8096,5.8101,5.8141,5.8184,5.8173,5.8227,5.8247,5.8293,5.8307,5.8348,5.8323,5.8345,5.8351,5.8356,5.8363,5.8203,5.8354,5.8354,5.8353,5.8353,5.8353,0,5.8053,5.8067,5.8109,5.8149,5.8184,5.8158,5.8187,5.8218,5.8266,5.8288,5.8322,5.8376,5.8417,5.8424,5.8463,5.8493,5.8482,5.8504,5.8501,5.8504,5.8383,5.8366,5.8512,5.8512,5.8512,5.8512,5.8512,5.8512,5.8138,5.821,5.8208,5.8288,5.83,5.8353,5.8372,5.8395,5.8412,5.8474,5.8509,5.8513,5.8528,5.8567,5.8603,5.8604,5.8619,5.8645,5.8641,5.8528,5.8512,5.8497,5.848,5.8649,5.8649,5.8758,5.8759,5.876]}]]